Abha, Saudi Arabia

7:26 PM +03 on July 23, 2019 (GMT +0300)
Abha

Weather History for OEAB - May, 2019

Change the Weather History Date:

Saturday, May 18, 2019

  Actual Average Record
Temperature  
Mean Temperature 64 °F -  
Max Temperature 73 °F 82 °F 89 °F (2016)
Min Temperature 55 °F 60 °F 55 °F (2019)
Degree Days  
Heating Degree Days 1    
Growing Degree Days 14 (Base 50)    
Moisture  
Dew Point 53 °F    
Average Humidity 77    
Maximum Humidity 94    
Minimum Humidity 50    
Precipitation  
Precipitation 0.31 in - - ()
Sea Level Pressure  
Sea Level Pressure 30.23 in    
Wind  
Wind Speed 8 mph ()    
Max Wind Speed 17 mph    
Max Gust Speed -    
Visibility 5.8 miles    
Events Rain , Thunderstorm    
Averages and records for this station are not official NWS values.
T = Trace of Precipitation, MM = Missing Value Source: Averaged Metar Reports

Daily Weather History Graph

Daily Weather History Graph

Search for Another Location

Airport or City:

Astronomy

May. 18, 2019 Rise Set
Actual Time 5:35 AM +03 6:36 PM +03
Civil Twilight 5:11 AM +03 6:59 PM +03
Nautical Twilight 4:44 AM +03 7:27 PM +03
Astronomical Twilight 4:15 AM +03 7:56 PM +03
Moon 6:17 PM +03 (5/18) 5:12 AM +03 (5/18)
Length of Visible Light 13h 48m
Length of Day
13h 01m
Full, 100% of the Moon is Illuminated
May 18
Full
May 19
Full
May 26
Last Quarter
Jun 3
New
Jun 10
First Quarter

Hourly Weather History & Observations

Time (+03) Temp. Dew Point Humidity Pressure Visibility Wind Dir Wind Speed Gust Speed Precip Events Conditions
12:00 AM 58 °F 54 °F 80%  in 6 mi North 17.3 mph - -   Partly Cloudy
12:00 AM 59.0 °F 53.6 °F 82% 30.30 in 6.2 mi North 17.3 mph - N/A   Scattered Clouds
1:00 AM 57.2 °F 53.6 °F 88% 30.27 in 5.0 mi North 15.0 mph - N/A Rain , Thunderstorm Thunderstorms and Rain
2:00 AM 57.2 °F 55.4 °F 94% 30.27 in 6.2 mi North 11.5 mph - N/A   Scattered Clouds
3:00 AM 55.4 °F 53.6 °F 94% 30.24 in 6.2 mi North 8.1 mph - N/A   Scattered Clouds
4:00 AM 55.4 °F 51.8 °F 88% 30.21 in 6.2 mi North 6.9 mph - N/A   Scattered Clouds
5:00 AM 55.4 °F 51.8 °F 88% 30.21 in 6.2 mi Calm Calm - N/A   Scattered Clouds
6:00 AM 55.4 °F 51.8 °F 88% 30.21 in 6.2 mi Calm Calm - N/A   Scattered Clouds
7:00 AM 57.2 °F 53.6 °F 88% 30.21 in 6.2 mi Calm Calm - N/A   Scattered Clouds
8:00 AM 62.6 °F 55.4 °F 77% 30.21 in - SSE 3.5 mph - N/A   Clear
9:00 AM 68 °F 55 °F 55%  in 6 mi SSW 5.8 mph - -   Partly Cloudy
9:00 AM 68.0 °F 55.4 °F 64% 30.24 in 6.2 mi SSW 5.8 mph - N/A   Scattered Clouds
11:00 AM 73.4 °F 53.6 °F 50% 30.24 in 6.2 mi South 8.1 mph - N/A   Partly Cloudy
12:00 PM 68.0 °F 57.2 °F 68% 30.21 in 6.2 mi SSW 11.5 mph - N/A Thunderstorm Thunderstorm
1:00 PM 68.0 °F 50.0 °F 52% 30.21 in 5.6 mi SW 8.1 mph - N/A Rain , Thunderstorm Thunderstorms and Rain
2:00 PM 57.2 °F 53.6 °F 88% 30.21 in 3.1 mi SSW 10.4 mph - N/A Rain , Thunderstorm Thunderstorms and Rain
3:00 PM 56 °F 50 °F 74%  in 4 mi Calm Calm - - Rain , Thunderstorm Thunderstorms and Rain
4:00 PM 57.2 °F 51.8 °F 82% 30.18 in 5.6 mi South 6.9 mph - N/A Rain , Thunderstorm Thunderstorms and Rain
5:00 PM 62.6 °F 50.0 °F 63% 30.15 in 6.2 mi South 4.6 mph - N/A   Scattered Clouds
6:00 PM 64.4 °F 51.8 °F 64% 30.18 in 6.2 mi East 5.8 mph - N/A   Scattered Clouds
8:00 PM 57.2 °F 51.8 °F 82% 30.27 in 6.2 mi NNW 13.8 mph - N/A   Partly Cloudy
9:00 PM 57.2 °F 51.8 °F 82% 30.30 in 6.2 mi North 10.4 mph - N/A   Partly Cloudy
10:00 PM 55.4 °F 51.8 °F 88% 30.27 in - ESE 4.6 mph - N/A   Clear